{"data":{"norad_id":45229,"epoch":"2026-05-24T23:50:07.010016Z","epoch_age_seconds":75310,"freshness":"FRESH","line1":"1 45229U 20012BD  26144.99313669  .00048249  00000+0  11068-2 0  9994","line2":"2 45229  53.1585   0.1462 0002734 157.2425 202.8702 15.42276102347157","mean_motion":15.42276102,"eccentricity":0.0002734,"inclination_deg":53.1585,"raan_deg":0.1462,"arg_perigee_deg":157.2425,"mean_anomaly_deg":202.8702,"bstar":0.0011068,"rev_number":34715,"period_min":93.368495960784,"perigee_km":437.52957187308,"apogee_km":441.25739754211,"semimajor_km":6817.5304847076,"source":"CELESTRAK","updated_at":"2026-05-25T13:38:16.385478Z"}}